Preview of NWS' New Version of Forecast
This preview is not operational and should not be used for support decisions.
Latest weather observations around

Lafayette, Lafayette Regional Airport (KLFT)

Using English Units (Switch to International System of Units)
Date/ Time (CDT) Wind (mph) Vis. (mi) Weather Sky Cond. Temp (°F) Rel. Humidity Wind Chill (°F) Heat Index (°F) Pressure Precip. (in)
Air Dwpt 6 hour Altimeter (inHg) Sea level (inHg) 1 hr 3 hr 6 hr
Max Min
Sep 17 11:53 5 10 Mostly Cloudy BKN025 86 75     70%   95 30.01 30.01      
Sep 17 11:00 ESE 6 10 Mostly Cloudy BKN021 86 77     75%   97 30.01        
Sep 17 10:53 5 10 Mostly Cloudy BKN014 BKN021 85 76     75%   94 30.01 30.01      
Sep 17 10:12 3 10 Mostly Cloudy BKN010 83 77     82%   92 30.02        
Sep 17 09:53 ESE 5 8 Cloudy OVC007 82 77     85%   90 30.01 30.01      
Sep 17 08:53 3 8 Cloudy OVC007 79 76     90%   83 30.01 30      
Sep 17 07:53 E 3 5 Fog/Mist OVC003 77 75     94%   79 29.99 29.99      
Sep 17 07:28 E 5 2 Fog/Mist OVC003 76 75     97%   78 29.99        
Sep 17 07:12 5 1.75 Fog/Mist OVC003 76 75     97%   78 29.98        
Sep 17 06:53 Calm 9 Cloudy OVC004 76 75     97%   78 29.98 29.98      
Sep 17 05:53 ENE 5 10 Cloudy OVC004 76 74     94%   78 29.96 29.96      
Sep 17 05:46 3 10 Cloudy OVC004 76 74     94%   78 29.96        
Sep 17 05:20 Calm 10 Mostly Cloudy BKN005 76 74     94%   78 29.95        
Sep 17 04:53 ENE 3 10 Mostly Clear FEW005 76 74     94%   78 29.94 29.94      
Sep 17 04:49 ENE 3 10 Mostly Clear FEW005 75 73     94%   77 29.94        
Sep 17 03:53 Calm 10 Clear CLR 76 74     94%   78 29.94 29.94      
Sep 17 02:53 Calm 10 Clear CLR 75 74     96%   77 29.95 29.95      
Sep 17 01:53 ESE 3 10 Clear CLR 76 74     94%   78 29.96 29.96      
Sep 17 00:53 ESE 5 10 Clear CLR 76 74     94%   78 29.96 29.96      
Sep 16 23:53 ESE 3 10 Clear CLR 76 74     94%   78 29.97 29.97      
Sep 16 22:53 3 10 Clear CLR 77 75     94%   79 29.99 29.99      
Sep 16 21:53 Calm 10 Clear CLR 78 75     90%   80 29.98 29.98      
Sep 16 20:53 E 3 10 Clear CLR 79 76     90%   83 29.97 29.96      
Sep 16 19:53 Calm 10 Clear CLR 79 76     90%   83 29.96 29.96      
Sep 16 19:13 Calm 10 Partly Cloudy FEW017 SCT035 80 76     87%   85 29.96        
Sep 16 18:53 ENE 3 10 Mostly Cloudy BKN017 BKN031 81 76     85%   87 29.96 29.96     0
Sep 16 18:40 Calm 10 Mostly Cloudy BKN017 BKN025 BKN031 81 76     85%   87 29.96        
Sep 16 17:53 Calm 10 Partly Cloudy SCT006 82 77     85%   90 29.95 29.95      
Sep 16 16:53 3 10 Partly Cloudy FEW006 SCT015 80 75     85%   85 29.95 29.95      
Sep 16 15:53 3 10 Partly Cloudy FEW006 SCT095 77 74     90%   79 29.96 29.96 0 0  
Sep 16 15:48 5 10 Mostly Cloudy FEW007 BKN095 77 73     89%   79 29.97   0    
Sep 16 14:53 NE 6 10 Light Rain SCT018 SCT065 BKN080 76 72     88%   77 30 30 0    
Sep 16 14:34 NE 6 10 Cloudy BKN014 BKN033 OVC080 77 72     84%   78 30.01        
Sep 16 14:23 ENE 7 10 Mostly Cloudy BKN017 BKN048 BKN080 78 73     85%   80 30.01        
Sep 16 13:53 Calm 10 Smoke FEW049 BKN065 BKN075 78 74     87%   80 30.02 30.01 0    
Sep 16 13:03 NE 7 4 Rain and Fog/Mist and Smoke SCT035 BKN049 OVC070 76 72     88%   77 30.04   0    
Sep 16 12:53 7 2.5 Heavy Rain and Fog/Mist and Smoke SCT038 BKN055 OVC070 76 72     88%   77 30.03 30.03 0   0
Sep 16 11:53 ENE 7 10 Smoke FEW050 88 73     61%   96 30.01 30.01      
Sep 16 10:53 ENE 7 10 Mostly Cloudy BKN050 85 73     68%   92 30.02 30.02      
Sep 16 09:53 NE 7 10 Mostly Clear FEW100 83 74     74%   89 30.01 30.01      
Sep 16 08:53 NE 8 10 Clear CLR 79 73     82%   82 30.01 30      
Sep 16 07:53 NE 7 9 Clear CLR 75 72     90%   76 30.01 30.01      
Sep 16 06:53 NE 6 8 Clear CLR 74 71     91%   75 29.99 29.99      
Sep 16 05:53 NNE 7 10 Clear CLR 74 71     91%   75 29.98 29.98      
Sep 16 04:53 Calm 10 Clear CLR 75 72     90%   76 29.98 29.98      
Sep 16 03:53 NE 3 10 Clear CLR 76 72     88%   77 29.99 29.98      
Sep 16 02:53 NNE 5 10 Clear CLR 75 72     90%   76 29.99 29.98      
Sep 16 01:53 Calm 10 Clear CLR 77 72     84%   78 30 29.99      
Sep 16 00:53 Calm 10 Cloudy BKN047 OVC060 78 73     85%   80 30.01 30      
Sep 15 23:53 Calm 10 Clear CLR 78 73     85%   80 30 30      
Sep 15 22:53 Calm 10 Mostly Clear FEW060 79 73     82%   82 30.01 30      
Sep 15 21:53 ESE 3 10 Clear CLR 80 73     79%   84 30 30      
Sep 15 20:53 Calm 10 Mostly Clear FEW055 82 72     72%   87 29.99 29.98      
Sep 15 19:53 E 3 10 Clear CLR 84 71     65%   89 29.96 29.96      
Sep 15 18:53 Calm 10 Clear CLR 87 72     61%   94 29.96 29.96      
Sep 15 17:53 E 5 10 Partly Cloudy SCT060 89 70     53%   94 29.96 29.96      
Sep 15 16:53 ENE 6 10 Partly Cloudy SCT060 91 69     49%   96 29.96 29.96      
Sep 15 15:53 E 6 10 Partly Cloudy SCT055 91 71     52%   98 29.96 29.96      
Sep 15 14:53 ENE 14 10 Partly Cloudy SCT050 92 69     47%   97 29.96 29.96      
Sep 15 13:53 ENE 7 10 Mostly Clear FEW041 91 71     52%   98 29.99 29.99      
Sep 15 12:53 7 10 Partly Cloudy SCT040 89 72     57%   96 30.02 30.02      
Sep 15 11:53 NE 9 10 Clear CLR 87 71     59%   93 30.03 30.03      
Sep 15 10:53 5 10 Clear CLR 85 72     65%   91 30.04 30.03      
Sep 15 09:53 ENE 8 10 Clear CLR 83 72     70%   88 30.05 30.04      
Sep 15 08:53 NNE 6 10 Clear CLR 79 72     79%   82 30.05 30.04      
Sep 15 07:53 NE 5 10 Clear CLR 74 70     87%   75 30.05 30.04      
Sep 15 06:53 NNE 5 10 Clear CLR 73 69     87%   74 30.04 30.03      
Sep 15 05:53 NNE 5 10 Clear CLR 73 69     87%   74 30.03 30.03      
Sep 15 04:53 NNE 5 10 Clear CLR 73 70     90%   74 30.03 30.03      
Sep 15 03:53 NNE 3 10 Mostly Cloudy BKN065 74 70     87%   75 30.04 30.03      
Sep 15 02:53 N 5 10 Clear CLR 74 71     91%   75 30.04 30.03      
Sep 15 01:53 NNE 3 10 Clear CLR 76 71     85%   77 30.05 30.04      
Sep 15 00:53 Calm 10 Clear CLR 77 72     84%   78 30.05 30.05      
Sep 14 23:53 Calm 10 Clear CLR 78 71     79%   79 30.06 30.06      
Sep 14 22:53 Calm 10 Clear CLR 78 70     76%   79 30.07 30.06      
Sep 14 21:53 E 3 10 Clear CLR 78 71     79%   79 30.06 30.05      
Sep 14 20:53 Calm 10 Clear CLR 80 71     74%   84 30.04 30.04      
Sep 14 19:53 Calm 10 Clear CLR 81 72     74%   85 30.03 30.03      
Sep 14 18:53 Calm 10 Clear CLR 85 69     59%   89 30.03 30.02      
Sep 14 17:53 E 3 10 Clear CLR 90 68     49%   94 30.02 30.01      
Sep 14 16:53 ESE 8 10 Clear CLR 91 67     45%   94 30.02 30.01      
Sep 14 15:53 ENE 8 10 Clear CLR 92 65     41%   94 30.02 30.02      
Sep 14 14:53 ENE 9 10 Clear CLR 92 65     41%   94 30.03 30.03      
Sep 14 13:53 ENE 8 10 Clear CLR 92 66     43%   95 30.06 30.06      
May 15 10:53 NNE 9 10 Mostly Clear FEW075 90 69     50%   95 29.96 29.96      
May 14 11:53 3 10 Clear CLR 89 66     47%   92 30.02 30.02      
Notice The following observation data may not be complete
May 14 06:23   0.25 Fog VV002          %              
May 14 05:11 Calm 0.25 Fog VV002 70 70     100%     30        
May 13 05:53 Calm 3 Fog/Mist BKN002 OVC008 71 71     100%   73 30.04 30.04      
May 12 15:53 5 10 Clear CLR 90 65     44%   92 30 30      
May 11 20:53 S 6 10 Clear CLR 78 67     69%   79 30.03 30.02      
May 11 18:53 S 10 10 Clear CLR 83 60     46%   83 30 30      
May 11 09:16 S 9 10 Mostly Cloudy BKN021 79 70     74%   82 30.08        
Notice The following observation data may not be complete
Jun 12 04:10   10 Mostly Cloudy SCT012 BKN020          %              
Jun 11 20:30 6 10 Partly Cloudy SCT013 SCT027 SCT049 76 76     100%   78 29.97        
Jun 11 14:34 SE 9 10 Mostly Cloudy FEW043 FEW060 BKN070 83 76     79%   91 29.98        
Jun 11 13:00 S 10 10 Mostly Cloudy BKN033 BKN041 BKN050 85 75     72%   93 29.98        
Jun 11 06:00 ENE 3 10 Mostly Cloudy BKN017 BKN100 70 70     100%     29.97        
Jun 10 08:53 5 10 Clear CLR 77 71     82%   78 29.98 29.98      
Jun 09 09:53 3 10 Clear CLR 76 63     64%   76 29.95 29.95      
Jun 09 01:53 ENE 3 10 Clear CLR 65 60     84%     29.91 29.91      
Jun 08 14:53 NNE 9 10 Clear CLR 82 58     44%   82 29.91 29.91      
Jun 07 11:43 NNE 9 10 Partly Cloudy SCT019 79 71     77%   82 29.86        
Jun 06 09:34 N 7 10 Mostly Cloudy FEW009 SCT026 BKN110 76 73     91%   77 29.74   0    
Jun 06 04:53 Calm 10 Mostly Cloudy FEW006 BKN019 73 73     100%   75 29.71 29.71